FBZ5101 SARI-SABE

Flight info

Callsign FBZ5101
Flight time 1h 24m
Altitude 36000
Route NAIDE1C NAIDE UT667 GEMSU UN785 GUA UZ129 PAGON PAGON8Q
Aircraft B738/M-MSDFGHILRVWS/LB1

Departure

Time 2026-04-20 15:18
Airport Cataratas Del Iguazú International Airport (SARI)

Arrival

Time 2026-04-20 16:42
Airport Aeroparque Jorge Newbery (SABE)
Time Latitude Longitude Altitude Speed Heading
2026-04-20 14:51 -25.73180 -54.47722 924 ft 0 kts 15°
2026-04-20 14:52 -25.73184 -54.47723 924 ft 2 kts 15°
2026-04-20 14:52 -25.73195 -54.47726 924 ft 2 kts 97°
2026-04-20 14:52 -25.73198 -54.47736 924 ft 0 kts 23°
2026-04-20 14:57 -25.73192 -54.47742 924 ft 0 kts 23°
2026-04-20 15:10 -25.73193 -54.47743 924 ft 1 kts 23°
2026-04-20 15:10 -25.73209 -54.47749 924 ft 3 kts
2026-04-20 15:10 -25.73227 -54.47747 924 ft 3 kts 331°
2026-04-20 15:10 -25.73241 -54.47734 924 ft 3 kts 300°
2026-04-20 15:11 -25.73249 -54.47716 924 ft 1 kts 294°
2026-04-20 15:11 -25.73250 -54.47714 924 ft 0 kts 294°
2026-04-20 15:13 -25.73229 -54.47765 924 ft 9 kts 290°
2026-04-20 15:13 -25.73222 -54.47889 924 ft 19 kts 266°
2026-04-20 15:13 -25.73237 -54.48033 924 ft 18 kts 251°
2026-04-20 15:14 -25.73272 -54.48165 924 ft 17 kts 263°
2026-04-20 15:14 -25.73280 -54.48246 924 ft 0 kts 262°
2026-04-20 15:15 -25.73281 -54.48250 924 ft 5 kts 262°
2026-04-20 15:15 -25.73294 -54.48362 924 ft 20 kts 276°
2026-04-20 15:15 -25.73245 -54.48500 924 ft 19 kts 295°
2026-04-20 15:16 -25.73187 -54.48640 924 ft 20 kts 295°
2026-04-20 15:16 -25.73116 -54.48748 924 ft 9 kts 287°
2026-04-20 15:16 -25.73134 -54.48754 924 ft 3 kts 143°
2026-04-20 15:16 -25.73147 -54.48734 924 ft 0 kts 115°
2026-04-20 15:17 -25.73149 -54.48731 924 ft 5 kts 115°
2026-04-20 15:17 -25.73225 -54.48549 924 ft 56 kts 115°
2026-04-20 15:17 -25.73477 -54.47947 924 ft 115 kts 115°
2026-04-20 15:17 -25.73887 -54.46968 955 ft 161 kts 115°
2026-04-20 15:18 -25.74376 -54.45803 1504 ft 167 kts 114°
2026-04-20 15:18 -25.74700 -54.45038 2014 ft 168 kts 109°
2026-04-20 15:18 -25.75197 -54.43833 2656 ft 173 kts 109°
2026-04-20 15:18 -25.75679 -54.42561 3118 ft 187 kts 110°
2026-04-20 15:19 -25.76223 -54.41167 3465 ft 210 kts 112°
2026-04-20 15:19 -25.77002 -54.39691 3765 ft 236 kts 128°
2026-04-20 15:19 -25.78436 -54.38653 4156 ft 260 kts 161°
2026-04-20 15:19 -25.80269 -54.38299 4711 ft 275 kts 175°
2026-04-20 15:20 -25.82202 -54.38146 5473 ft 280 kts 178°
2026-04-20 15:20 -25.84166 -54.38063 6251 ft 286 kts 178°
2026-04-20 15:20 -25.86169 -54.37965 7028 ft 290 kts 178°
2026-04-20 15:20 -25.88201 -54.37849 7797 ft 294 kts 178°
2026-04-20 15:21 -25.90257 -54.37721 8551 ft 299 kts 177°
2026-04-20 15:21 -25.92357 -54.37583 9299 ft 303 kts 177°
2026-04-20 15:21 -25.94468 -54.37475 10036 ft 307 kts 178°
2026-04-20 15:21 -25.96628 -54.37357 10727 ft 314 kts 178°
2026-04-20 15:22 -25.98859 -54.37216 11107 ft 331 kts 177°
2026-04-20 15:22 -26.01234 -54.37052 11380 ft 351 kts 177°
2026-04-20 15:22 -26.03717 -54.36871 11788 ft 364 kts 177°
2026-04-20 15:22 -26.06229 -54.36682 12415 ft 368 kts 177°
2026-04-20 15:23 -26.08834 -54.36481 13111 ft 372 kts 177°
2026-04-20 15:23 -26.11390 -54.36280 13783 ft 375 kts 177°
2026-04-20 15:23 -26.14007 -54.36070 14455 ft 378 kts 177°
2026-04-20 15:23 -26.16684 -54.35851 15117 ft 382 kts 177°
2026-04-20 15:24 -26.19315 -54.35630 15748 ft 386 kts 177°
2026-04-20 15:24 -26.22037 -54.35403 16383 ft 390 kts 178°
2026-04-20 15:24 -26.24718 -54.35435 16990 ft 391 kts 187°
2026-04-20 15:24 -26.27408 -54.35894 17598 ft 392 kts 195°
2026-04-20 15:25 -26.30032 -54.36730 18199 ft 393 kts 201°
2026-04-20 15:25 -26.32614 -54.37757 18791 ft 395 kts 203°
2026-04-20 15:25 -26.35206 -54.38800 19368 ft 397 kts 202°
2026-04-20 15:25 -26.37826 -54.39817 19956 ft 399 kts 202°
2026-04-20 15:26 -26.40465 -54.40818 20535 ft 401 kts 201°
2026-04-20 15:26 -26.43116 -54.41808 21100 ft 402 kts 201°
2026-04-20 15:26 -26.45768 -54.42796 21653 ft 403 kts 202°
2026-04-20 15:26 -26.48442 -54.43793 22190 ft 405 kts 202°
2026-04-20 15:27 -26.51116 -54.44790 22719 ft 406 kts 202°
2026-04-20 15:27 -26.53797 -54.45790 23233 ft 407 kts 202°
2026-04-20 15:27 -26.56475 -54.46789 23736 ft 407 kts 202°
2026-04-20 15:27 -26.59170 -54.47796 24224 ft 408 kts 202°
2026-04-20 15:28 -26.61868 -54.48803 24699 ft 409 kts 201°
2026-04-20 15:28 -26.64572 -54.49813 25100 ft 412 kts 202°
2026-04-20 15:28 -26.67298 -54.50830 25474 ft 414 kts 202°
2026-04-20 15:28 -26.70004 -54.51959 25864 ft 414 kts 206°
2026-04-20 15:29 -26.72586 -54.53374 26219 ft 414 kts 211°
2026-04-20 15:29 -26.75099 -54.54977 26541 ft 416 kts 213°
2026-04-20 15:29 -26.77584 -54.56633 26929 ft 417 kts 214°
2026-04-20 15:29 -26.80095 -54.58305 27295 ft 419 kts 214°
2026-04-20 15:30 -26.82607 -54.59974 27610 ft 421 kts 214°
2026-04-20 15:30 -26.85094 -54.61624 27960 ft 422 kts 214°
2026-04-20 15:30 -26.87624 -54.63301 28314 ft 423 kts 214°
2026-04-20 15:30 -26.90164 -54.64985 28624 ft 425 kts 214°
2026-04-20 15:31 -26.92714 -54.66675 28917 ft 426 kts 214°
2026-04-20 15:31 -26.95272 -54.68370 29226 ft 428 kts 214°
2026-04-20 15:31 -26.97835 -54.70069 29524 ft 429 kts 214°
2026-04-20 15:31 -27.00406 -54.71772 29811 ft 430 kts 214°
2026-04-20 15:32 -27.02992 -54.73473 30089 ft 431 kts 214°
2026-04-20 15:32 -27.05581 -54.75181 30359 ft 432 kts 214°
2026-04-20 15:32 -27.08172 -54.76893 30683 ft 432 kts 215°
2026-04-20 15:32 -27.10743 -54.78595 31110 ft 429 kts 215°
2026-04-20 15:33 -27.13307 -54.80294 31523 ft 426 kts 215°
2026-04-20 15:33 -27.15851 -54.81982 31875 ft 425 kts 215°
2026-04-20 15:33 -27.18403 -54.83676 32141 ft 426 kts 215°
2026-04-20 15:33 -27.20961 -54.85376 32438 ft 426 kts 215°
2026-04-20 15:34 -27.23513 -54.87071 32734 ft 427 kts 215°
2026-04-20 15:34 -27.26070 -54.88773 33029 ft 427 kts 215°
2026-04-20 15:34 -27.28621 -54.90470 33322 ft 427 kts 215°
2026-04-20 15:34 -27.31176 -54.92172 33616 ft 427 kts 215°
2026-04-20 15:35 -27.33740 -54.93880 33911 ft 427 kts 215°
2026-04-20 15:35 -27.36292 -54.95582 34203 ft 427 kts 215°
2026-04-20 15:35 -27.38852 -54.97290 34493 ft 428 kts 215°
2026-04-20 15:35 -27.41409 -54.98996 34781 ft 428 kts 215°
2026-04-20 15:36 -27.43970 -55.00706 35066 ft 428 kts 215°
2026-04-20 15:36 -27.46539 -55.02423 35347 ft 428 kts 215°
2026-04-20 15:36 -27.49094 -55.04131 35628 ft 428 kts 215°
2026-04-20 15:36 -27.51655 -55.05844 35904 ft 428 kts 215°
2026-04-20 15:37 -27.54193 -55.07542 36039 ft 431 kts 214°
2026-04-20 15:37 -27.59431 -55.11051 36054 ft 439 kts 214°
2026-04-20 15:38 -27.64695 -55.14581 36053 ft 447 kts 214°
2026-04-20 15:38 -27.70059 -55.18183 36053 ft 449 kts 214°
2026-04-20 15:39 -27.75425 -55.21789 36053 ft 448 kts 214°
2026-04-20 15:39 -27.80789 -55.25399 36053 ft 448 kts 214°
2026-04-20 15:40 -27.86154 -55.28999 36053 ft 448 kts 214°
2026-04-20 15:40 -27.91409 -55.32764 36053 ft 445 kts 220°
2026-04-20 15:41 -27.96189 -55.37178 36053 ft 444 kts 223°
2026-04-20 15:41 -28.00910 -55.41693 36053 ft 444 kts 223°
2026-04-20 15:42 -28.05780 -55.45952 36053 ft 445 kts 220°
2026-04-20 15:42 -28.10722 -55.50182 36053 ft 445 kts 220°
2026-04-20 15:43 -28.15659 -55.54418 36053 ft 445 kts 220°
2026-04-20 15:43 -28.20611 -55.58673 36053 ft 445 kts 220°
2026-04-20 15:44 -28.25514 -55.62892 36053 ft 445 kts 220°
2026-04-20 15:44 -28.30443 -55.67138 36053 ft 445 kts 220°
2026-04-20 15:45 -28.35398 -55.71376 36053 ft 445 kts 220°
2026-04-20 15:45 -28.40339 -55.75618 36053 ft 445 kts 220°
2026-04-20 15:46 -28.45278 -55.79871 36053 ft 445 kts 220°
2026-04-20 15:46 -28.50217 -55.84133 36053 ft 445 kts 220°
2026-04-20 15:47 -28.55141 -55.88387 36053 ft 445 kts 220°
2026-04-20 15:47 -28.60045 -55.92631 36053 ft 445 kts 220°
2026-04-20 15:48 -28.64977 -55.96905 36053 ft 445 kts 220°
2026-04-20 15:48 -28.70292 -56.00566 36058 ft 454 kts 205°
2026-04-20 15:49 -28.76135 -56.03240 36054 ft 453 kts 206°
2026-04-20 15:49 -28.81983 -56.05951 36053 ft 453 kts 206°
2026-04-20 15:50 -28.87825 -56.08657 36053 ft 453 kts 206°
2026-04-20 15:50 -28.93669 -56.11365 36053 ft 453 kts 206°
2026-04-20 15:51 -28.99487 -56.14063 36053 ft 453 kts 206°
2026-04-20 15:51 -29.05335 -56.16776 36053 ft 453 kts 206°
2026-04-20 15:52 -29.11188 -56.19472 36053 ft 453 kts 206°
2026-04-20 15:52 -29.17036 -56.22179 36053 ft 453 kts 206°
2026-04-20 15:53 -29.25803 -56.26250 36053 ft 453 kts 206°
2026-04-20 15:53 -29.31646 -56.28968 36053 ft 453 kts 206°
2026-04-20 15:54 -29.37485 -56.31690 36053 ft 453 kts 206°
2026-04-20 15:54 -29.43324 -56.34415 36053 ft 453 kts 206°
2026-04-20 15:55 -29.49187 -56.37155 36053 ft 453 kts 206°
2026-04-20 15:55 -29.55032 -56.39890 36053 ft 453 kts 206°
2026-04-20 15:56 -29.60852 -56.42616 36020 ft 457 kts 207°
2026-04-20 15:56 -29.66753 -56.45384 36002 ft 457 kts 208°
2026-04-20 15:57 -29.72638 -56.48148 35994 ft 457 kts 208°
2026-04-20 15:57 -29.78520 -56.50914 35994 ft 457 kts 208°
2026-04-20 15:58 -29.84417 -56.53691 35994 ft 457 kts 208°
2026-04-20 15:58 -29.90293 -56.56462 35999 ft 457 kts 208°
2026-04-20 15:59 -29.96181 -56.59241 36004 ft 456 kts 208°
2026-04-20 15:59 -30.02014 -56.61998 36006 ft 456 kts 208°
2026-04-20 16:00 -30.07951 -56.64639 36011 ft 457 kts 206°
2026-04-20 16:00 -30.13911 -56.67159 36016 ft 456 kts 206°
2026-04-20 16:01 -30.19869 -56.69686 36014 ft 456 kts 206°
2026-04-20 16:01 -30.25821 -56.72217 36017 ft 456 kts 206°
2026-04-20 16:02 -30.31779 -56.74754 36015 ft 456 kts 206°
2026-04-20 16:02 -30.37753 -56.77290 36012 ft 458 kts 206°
2026-04-20 16:03 -30.43734 -56.79830 36015 ft 457 kts 206°
2026-04-20 16:03 -30.49695 -56.82369 36017 ft 456 kts 206°
2026-04-20 16:04 -30.55654 -56.84913 36014 ft 457 kts 206°
2026-04-20 16:04 -30.61628 -56.87468 36015 ft 457 kts 206°
2026-04-20 16:05 -30.66583 -56.89589 36015 ft 457 kts 206°
2026-04-20 16:05 -30.72555 -56.92150 36012 ft 457 kts 206°
2026-04-20 16:06 -30.78529 -56.94714 36014 ft 458 kts 206°
2026-04-20 16:06 -30.85482 -56.97704 36012 ft 458 kts 206°
2026-04-20 16:07 -30.90458 -56.99846 36012 ft 459 kts 206°
2026-04-20 16:07 -30.96443 -57.02426 36016 ft 458 kts 206°
2026-04-20 16:08 -31.02444 -57.05016 36020 ft 458 kts 206°
2026-04-20 16:08 -31.08420 -57.07599 36022 ft 458 kts 207°
2026-04-20 16:09 -31.14415 -57.10193 36024 ft 459 kts 207°
2026-04-20 16:09 -31.20397 -57.12785 36023 ft 459 kts 207°
2026-04-20 16:10 -31.26387 -57.15385 36022 ft 458 kts 207°
2026-04-20 16:10 -31.32362 -57.17981 36023 ft 459 kts 207°
2026-04-20 16:11 -31.38342 -57.20583 36021 ft 458 kts 207°
2026-04-20 16:11 -31.44335 -57.23194 36007 ft 461 kts 207°
2026-04-20 16:12 -31.50412 -57.25846 35999 ft 471 kts 207°
2026-04-20 16:12 -31.56558 -57.28531 35994 ft 478 kts 207°
2026-04-20 16:13 -31.62787 -57.31257 35993 ft 478 kts 207°
2026-04-20 16:13 -31.69054 -57.34003 35994 ft 484 kts 206°
2026-04-20 16:14 -31.75378 -57.36778 35994 ft 485 kts 206°
2026-04-20 16:14 -31.81690 -57.39552 35994 ft 484 kts 206°
2026-04-20 16:15 -31.88014 -57.42335 35994 ft 484 kts 207°
2026-04-20 16:15 -31.94328 -57.45118 35994 ft 484 kts 207°
2026-04-20 16:16 -32.00634 -57.47901 35994 ft 484 kts 207°
2026-04-20 16:16 -32.06904 -57.50673 35994 ft 483 kts 207°
2026-04-20 16:17 -32.13157 -57.53441 35994 ft 477 kts 207°
2026-04-20 16:17 -32.19411 -57.56214 35994 ft 477 kts 208°
2026-04-20 16:18 -32.25599 -57.58961 35994 ft 478 kts 208°
2026-04-20 16:18 -32.31832 -57.61733 35994 ft 478 kts 208°
2026-04-20 16:19 -32.38020 -57.64488 35993 ft 468 kts 208°
2026-04-20 16:19 -32.44061 -57.67182 35994 ft 462 kts 208°
2026-04-20 16:20 -32.47059 -57.68520 35866 ft 460 kts 208°
2026-04-20 16:20 -32.50043 -57.69853 35553 ft 454 kts 209°
2026-04-20 16:20 -32.52979 -57.71165 35080 ft 448 kts 209°
2026-04-20 16:20 -32.55876 -57.72462 34587 ft 445 kts 210°
2026-04-20 16:21 -32.58767 -57.73756 34097 ft 441 kts 210°
2026-04-20 16:21 -32.61630 -57.75038 33614 ft 438 kts 211°
2026-04-20 16:21 -32.64468 -57.76311 33136 ft 435 kts 211°
2026-04-20 16:21 -32.67262 -57.77564 32666 ft 433 kts 212°
2026-04-20 16:22 -32.70107 -57.78841 32196 ft 430 kts 213°
2026-04-20 16:22 -32.72865 -57.80079 31742 ft 428 kts 213°
2026-04-20 16:22 -32.75639 -57.81327 31284 ft 426 kts 214°
2026-04-20 16:22 -32.78396 -57.82567 30830 ft 424 kts 213°
2026-04-20 16:23 -32.81154 -57.83808 30380 ft 421 kts 213°
2026-04-20 16:23 -32.83890 -57.85040 29939 ft 419 kts 213°
2026-04-20 16:23 -32.86618 -57.86270 29501 ft 417 kts 212°
2026-04-20 16:23 -32.89312 -57.87485 29067 ft 414 kts 212°
2026-04-20 16:24 -32.92005 -57.88700 28628 ft 412 kts 212°
2026-04-20 16:24 -32.94682 -57.89909 28188 ft 410 kts 212°
2026-04-20 16:24 -32.97348 -57.91114 27747 ft 408 kts 211°
2026-04-20 16:24 -32.99993 -57.92309 27308 ft 406 kts 211°
2026-04-20 16:25 -33.02604 -57.93491 26877 ft 404 kts 211°
2026-04-20 16:25 -33.05246 -57.94687 26437 ft 401 kts 211°
2026-04-20 16:25 -33.07846 -57.95865 26025 ft 398 kts 210°
2026-04-20 16:25 -33.10429 -57.97036 25381 ft 401 kts 210°
2026-04-20 16:26 -33.13053 -57.98226 24630 ft 407 kts 209°
2026-04-20 16:26 -33.15741 -57.99446 23990 ft 415 kts 208°
2026-04-20 16:26 -33.18457 -58.00679 23434 ft 419 kts 208°
2026-04-20 16:26 -33.21233 -58.01941 22895 ft 436 kts 207°
2026-04-20 16:27 -33.24098 -58.03244 22398 ft 444 kts 207°
2026-04-20 16:27 -33.27001 -58.04565 21896 ft 446 kts 207°
2026-04-20 16:27 -33.29899 -58.05885 21397 ft 448 kts 207°
2026-04-20 16:27 -33.32763 -58.07190 20905 ft 449 kts 207°
2026-04-20 16:28 -33.35691 -58.08525 20402 ft 446 kts 206°
2026-04-20 16:28 -33.38585 -58.09846 19900 ft 442 kts 206°
2026-04-20 16:28 -33.41451 -58.11155 19399 ft 438 kts 206°
2026-04-20 16:28 -33.44281 -58.12449 18898 ft 435 kts 206°
2026-04-20 16:29 -33.47110 -58.13743 18416 ft 434 kts 206°
2026-04-20 16:29 -33.49934 -58.15035 17938 ft 433 kts 206°
2026-04-20 16:29 -33.52744 -58.16322 17463 ft 432 kts 205°
2026-04-20 16:29 -33.55545 -58.17606 16987 ft 430 kts 205°
2026-04-20 16:30 -33.58335 -58.18885 16510 ft 428 kts 205°
2026-04-20 16:30 -33.61112 -58.20160 16035 ft 427 kts 205°
2026-04-20 16:30 -33.63872 -58.21427 15560 ft 425 kts 205°
2026-04-20 16:30 -33.66631 -58.22696 15084 ft 423 kts 204°
2026-04-20 16:31 -33.69368 -58.23954 14608 ft 420 kts 204°
2026-04-20 16:31 -33.72091 -58.25207 14133 ft 417 kts 204°
2026-04-20 16:31 -33.74788 -58.26449 13657 ft 414 kts 204°
2026-04-20 16:31 -33.77471 -58.27686 13180 ft 409 kts 204°
2026-04-20 16:32 -33.80116 -58.28905 12704 ft 406 kts 204°
2026-04-20 16:32 -33.82743 -58.30118 12229 ft 403 kts 204°
2026-04-20 16:32 -33.85348 -58.31320 11753 ft 399 kts 204°
2026-04-20 16:32 -33.87931 -58.32514 11277 ft 396 kts 204°
2026-04-20 16:33 -33.90490 -58.33696 10802 ft 393 kts 204°
2026-04-20 16:33 -33.93002 -58.34859 10331 ft 390 kts 204°
2026-04-20 16:33 -33.95552 -58.36039 9851 ft 387 kts 204°
2026-04-20 16:33 -33.98067 -58.37204 9374 ft 387 kts 204°
2026-04-20 16:34 -34.00580 -58.38369 8899 ft 387 kts 203°
2026-04-20 16:34 -34.03064 -58.39521 8474 ft 386 kts 203°
2026-04-20 16:34 -34.05560 -58.40679 8049 ft 383 kts 203°
2026-04-20 16:34 -34.08064 -58.41842 7618 ft 380 kts 203°
2026-04-20 16:35 -34.10517 -58.42981 7193 ft 377 kts 203°
2026-04-20 16:35 -34.12966 -58.44120 6774 ft 374 kts 203°
2026-04-20 16:35 -34.15352 -58.45229 6478 ft 372 kts 202°
2026-04-20 16:35 -34.17768 -58.46333 6176 ft 370 kts 202°
2026-04-20 16:36 -34.20166 -58.47435 5876 ft 368 kts 202°
2026-04-20 16:36 -34.22549 -58.48537 5575 ft 366 kts 202°
2026-04-20 16:36 -34.24912 -58.49635 5276 ft 364 kts 202°
2026-04-20 16:36 -34.26849 -58.50537 5090 ft 362 kts 202°
2026-04-20 16:37 -34.27639 -58.50905 5014 ft 362 kts 202°
2026-04-20 16:37 -34.28882 -58.51485 4877 ft 362 kts 202°
2026-04-20 16:37 -34.31255 -58.52593 4599 ft 362 kts 202°
2026-04-20 16:37 -34.33595 -58.53685 4324 ft 362 kts 202°
2026-04-20 16:38 -34.35967 -58.54718 4045 ft 363 kts 197°
2026-04-20 16:38 -34.38435 -58.55155 3771 ft 364 kts 181°
2026-04-20 16:38 -34.40918 -58.54853 3581 ft 345 kts 168°
2026-04-20 16:38 -34.43152 -58.54033 3090 ft 326 kts 159°
2026-04-20 16:39 -34.45240 -58.53212 2638 ft 308 kts 160°
2026-04-20 16:39 -34.47205 -58.52438 2416 ft 284 kts 159°
2026-04-20 16:39 -34.49005 -58.51723 2173 ft 263 kts 160°
2026-04-20 16:39 -34.50601 -58.50865 1838 ft 239 kts 142°
2026-04-20 16:40 -34.51605 -58.49505 1736 ft 199 kts 118°
2026-04-20 16:40 -34.52247 -58.48173 1680 ft 167 kts 119°
2026-04-20 16:40 -34.52869 -58.47059 1293 ft 153 kts 121°
2026-04-20 16:40 -34.53440 -58.46013 859 ft 144 kts 122°
2026-04-20 16:41 -34.53966 -58.45041 569 ft 132 kts 124°
2026-04-20 16:41 -34.54477 -58.44153 303 ft 127 kts 124°
2026-04-20 16:41 -34.54964 -58.43281 162 ft 122 kts 124°
2026-04-20 16:41 -34.55447 -58.42426 51 ft 121 kts 124°
2026-04-20 16:42 -34.55881 -58.41651 27 ft 87 kts 124°
2026-04-20 16:42 -34.56097 -58.41264 26 ft 41 kts 124°
2026-04-20 16:42 -34.56185 -58.41080 26 ft 15 kts 90°
2026-04-20 16:42 -34.56172 -58.41025 26 ft 1 kts 63°
2026-04-20 16:43 -34.56169 -58.41018 26 ft 1 kts 63°
2026-04-20 16:43 -34.56150 -58.40988 26 ft 11 kts 36°
2026-04-20 16:43 -34.56091 -58.41025 26 ft 10 kts 307°
2026-04-20 16:43 -34.56048 -58.41093 26 ft 10 kts 307°
2026-04-20 16:44 -34.56008 -58.41158 26 ft 10 kts 307°
2026-04-20 16:44 -34.55968 -58.41222 26 ft 9 kts 307°
2026-04-20 16:44 -34.55931 -58.41282 26 ft 9 kts 304°
2026-04-20 16:44 -34.55902 -58.41345 26 ft 8 kts 298°
2026-04-20 16:45 -34.55875 -58.41407 26 ft 8 kts 297°
2026-04-20 16:45 -34.55851 -58.41466 26 ft 8 kts 296°
2026-04-20 16:45 -34.55828 -58.41523 26 ft 7 kts 296°
2026-04-20 16:45 -34.55805 -58.41576 26 ft 7 kts 306°
2026-04-20 16:46 -34.55763 -58.41583 26 ft 7 kts 25°
2026-04-20 16:46 -34.55723 -58.41598 26 ft 7 kts 309°
2026-04-20 16:46 -34.55700 -58.41638 26 ft 5 kts 303°
2026-04-20 16:46 -34.55688 -58.41661 26 ft 1 kts 303°
2026-04-20 16:47 -34.55666 -58.41662 26 ft 4 kts 17°
2026-04-20 16:47 -34.55640 -58.41643 26 ft 4 kts 34°
2026-04-20 16:47 -34.55626 -58.41631 26 ft 1 kts 34°
2026-04-20 16:47 -34.55622 -58.41628 26 ft 0 kts 34°